Regional Weather Roundup
Issued by NWS

Home | Current Version | Previous Version | Graphics & Text | Print | Product List | Glossary On
Versions: 1 2 3 4 5 6 7 8 9 10 11 12 13 14 15 16 17 18 19 20 21 22 23 24 25 26 27 28 29 30 31 32 33 34 35 36 37 38 39 40 41 42 43 44 45 46 47 48 49 50
000
ASUS43 KMKX 150800
RWRWI

WISCONSIN REGIONAL WEATHER ROUNDUP
NATIONAL WEATHER SERVICE MILWAUKEE/SULLIVAN WI
300 AM CDT MON SEP 15 2014

NOTE: "FAIR" INDICATES FEW OR NO CLOUDS BELOW 12,000 FEET WITH NO
SIGNIFICANT WEATHER AND/OR OBSTRUCTIONS TO VISIBILITY.

WIZ001-002-006>008-014>016-023>028-150900-
NORTHWEST WISCONSIN

CITY           SKY/WX    TMP DP  RH WIND       PRES   REMARKS
SUPERIOR ARPT  MOCLDY    41  40  97 SW6       30.12F
ASHLAND        MOCLDY    44  42  93 SW6       30.12S
HAYWARD        CLOUDY    44  42  93 S3        30.13F
SIREN          MOCLDY    43  41  93 CALM      30.14F
RICE LAKE      MOCLDY    45  43  91 CALM      30.15F
LADYSMITH      MOCLDY    42  41  95 CALM      30.15S
EAU CLAIRE     CLOUDY    51  46  83 CALM      30.13S
MENOMONIE      CLOUDY    52  46  81 CALM      30.13S
NEW RICHMOND   CLOUDY    47  46  97 CALM      30.15S
OSCEOLA        CLOUDY    46  46 100 CALM      30.17F
$$

WIZ003>005-009-010-017-018-150900-
NORTH CENTRAL WISCONSIN

CITY           SKY/WX    TMP DP  RH WIND       PRES   REMARKS
WOODRUFF       CLEAR     39  37  93 CALM      30.12S
RHINELANDER    PTCLDY    37  36  96 W5        30.13S FOG     WCI  33
EAGLE RIVER    CLEAR     38  38 100 CALM      30.10F
LAND O LAKES   CLEAR     34  34 100 CALM      30.11S FOG
PHILLIPS       MOCLDY    39  39  99 CALM      30.11F
TOMAHAWK       MOCLDY    37  36  96 CALM      30.13S
MEDFORD        CLOUDY    46  44  94 CALM      30.13S
MERRILL        CLOUDY    45  44  95 CALM      30.12F
$$

WIZ029-030-035-036-043>047-150900-
CENTRAL WISCONSIN

CITY           SKY/WX    TMP DP  RH WIND       PRES   REMARKS
WAUSAU         CLOUDY    51  45  79 N3        30.11F
MOSINEE        CLOUDY    50  46  87 CALM      30.13F
MARSHFIELD     CLOUDY    50  47  89 SW3       30.12F
STEVENS POINT  DRIZZLE   49  47  93 SW3       30.14S
WAUPACA        LGT RAIN  55  51  86 S3        30.14R
WAUTOMA        NOT AVBL
WISC RAPIDS    LGT RAIN  52  49  89 CALM      30.14F
CAMP DOUGLAS   NOT AVBL
$$

WIZ011>013-019>022-031-037>040-048>050-150900-
NORTHEAST WISCONSIN

CITY           SKY/WX    TMP DP  RH WIND       PRES   REMARKS
ANTIGO         CLOUDY    45  43  93 CALM      30.13S
STURGEON BAY   CLOUDY    54  46  76 NW6       30.11S
GREEN BAY      LGT RAIN  54  51  90 W6        30.12R
MANITOWOC      NOT AVBL
APPLETON       CLOUDY    52  50  93 NW6       30.13S
CLINTONVILLE   DRIZZLE   52  46  82 W3        30.12S
OSHKOSH        CLOUDY    56  50  80 SW5       30.13S
$$

WIZ032>034-041-042-053>061-150900-
SOUTHWEST WISCONSIN

CITY           SKY/WX    TMP DP  RH WIND       PRES   REMARKS
LA CROSSE      LGT RAIN  55  46  71 CALM      30.12F
SPARTA         CLOUDY    54  44  70 CALM      30.15S
VIROQUA        FAIR      53  46  77 N3        30.13S
BOSCOBEL       MOCLDY    50  48  93 S3        30.13F
PRAIRIE DU CHI MOCLDY    53  50  90 CALM      30.13S
PLATTEVILLE    FAIR      51  47  86 CALM      30.15S
$$

WIZ056-057-062-063-064-067-068-150900-
SOUTH CENTRAL WISCONSIN

CITY           SKY/WX    TMP DP  RH WIND       PRES   REMARKS
BARABOO/DELLS  CLOUDY    52  48  86 CALM      30.13F
LONE ROCK      NOT AVBL
WATERTOWN      MOCLDY    49  47  95 CALM      30.13F
MADISON        CLOUDY    57  47  69 W3        30.13F
MIDDLETON      FAIR      53  46  77 CALM      30.13F
MONROE         PTCLDY    50  46  87 SW6       30.14S
JANESVILLE     PTCLDY    48  45  87 CALM      30.14S
$$

WIZ051-052-058>065-066-070>072-150900-
SOUTHEAST WISCONSIN

CITY           SKY/WX    TMP DP  RH WIND       PRES   REMARKS
MILWAUKEE      PTCLDY    52  45  77 SW3       30.15F
WAUKESHA       PTCLDY    48  45  87 S5        30.16S
MILWAUKEE/TIMM PTCLDY    50  43  76 SW3       30.15F
RACINE         PTCLDY    53  45  74 SW3       30.16F
BURLINGTON     PTCLDY    45  44  99 CALM      30.14F
KENOSHA        PTCLDY    50  46  86 SW5       30.15F
FOND DU LAC    CLOUDY    54  48  80 SW6       30.13F
SHEBOYGAN      CLOUDY    54  47  77 W6        30.13S
WEST BEND      CLOUDY    55  43  62 W8        30.14S
JUNEAU         CLOUDY    50  47  89 S5        30.15F
$$

LSZ147-162-150900-
LAKE SUPERIOR

STATION/POSITION TIME  TEMP    WIND        PRES    WAVE
                       AIR SEA DIR/SP/G            HT/PER
                 (UTC) (F)     (DEG/KT/KT) (MB)    (FT/S)
W MID LAKE BUOY  0650   49 47  260/ 10/ 12 1018.5R   1/ 4
DEVILS ISLAND    0700   52     290/ 10/ 13 1019.4R
PORT WING        0700   46     160/  4/  6 1020.0
SAXON HARBOR     0740   45     190/  5/  8 1019.3S
$$

LMZ867-665-643>646-150900-
LAKE MICHIGAN

STATION/POSITION TIME  TEMP    WIND        PRES    WAVE
                       AIR SEA DIR/SP/G            HT/PER
                 (UTC) (F)     (DEG/KT/KT) (MB)    (FT/S)
N MID LAKE BUOY  0650   57 57  330/  6/  8 1019.1R   4/ 7
NORTHPORT PIER   0700   53     280/  3/  4 1019.3R
KEWAUNEE LAKESHO 0700   56     330/  2/  4 1018.8S
SHEBOYGAN LAKESH 0700   58 51  250/ 10/ 12 1020.5R
PORT WASHINGTON  0740   58     250/  5/  8 1020.7S
MILWAUKEE LAKESH 0700   56     230/  9/ 10   N/A
S MID LAKE BUOY  0650   63 64  240/ 12/ 14 1021.5S   2/ 3
KENOSHA   LAKESH 0700   57     250/  6/  9 1021.3S
$$

TC  - TEMPERATURE IN CELSIUS
VSB - VISIBILITY IN STATUTE MILES
WCI - WIND CHILL INDEX
HX  - HEAT INDEX



USA.gov is the U.S. government's official web portal to all federal, state and local government web resources and services.